When you browse on this site, cookies collect data to enhance your experience and personalize the content and advertising you see.
Visit our Privacy Policy to learn more. By continuing to use the site, you agree to this use of cookies and data.
  • In Romania
  • List of Countries
  • For 7 days
  • Water Temperature
  • Satellite Maps
  • Weather Map
  • Weather Widgets
  • user-avatar
    Login

    Hourly Weather Gisborne

    Today, 23 May, Thursday

    Time Temperature Precipitation Wind Pressure Humidity
    00:00 +9°C° 0 mm 2 mps 763 mmHg 81%
    01:00 +9°C° 0 mm 2 mps 763 mmHg 81%
    02:00 +9°C° 0 mm 2 mps 763 mmHg 81%
    03:00 +9°C° 0 mm 2 mps 763 mmHg 81%
    04:00 +8°C° 0 mm 2 mps 763 mmHg 80%
    05:00 +8°C° 0 mm 2 mps 763 mmHg 79%
    06:00 +9°C° 0 mm 2 mps 763 mmHg 74%
    07:00 +10°C° 0 mm 2 mps 764 mmHg 70%
    08:00 +12°C° 0 mm 1 mps 764 mmHg 66%
    09:00 +13°C° 0 mm 1 mps 765 mmHg 62%
    10:00 +15°C° 0 mm 1 mps 765 mmHg 59%
    11:00 +16°C° 0 mm 1 mps 765 mmHg 56%
    12:00 +18°C° 0 mm 2 mps 765 mmHg 52%
    13:00 +18°C° 0 mm 2 mps 765 mmHg 53%
    14:00 +18°C° 0 mm 2 mps 765 mmHg 55%
    15:00 +17°C° 0 mm 2 mps 765 mmHg 56%
    16:00 +16°C° 0 mm 2 mps 765 mmHg 67%
    17:00 +14°C° 0 mm 1 mps 765 mmHg 77%
    18:00 +12°C° 0 mm 1 mps 766 mmHg 88%
    19:00 +12°C° 0 mm 1 mps 766 mmHg 90%
    20:00 +11°C° 0 mm 1 mps 767 mmHg 91%
    21:00 +11°C° 0 mm 1 mps 767 mmHg 93%
    22:00 +11°C° 0 mm 1 mps 767 mmHg 94%
    23:00 +11°C° 0 mm 1 mps 767 mmHg 94%

    Tomorrow, 24 May, Friday

    Time Temperature Precipitation Wind Pressure Humidity
    00:00 +11°C° 0 mm 1 mps 767 mmHg 95%
    01:00 +10°C° 0 mm 1 mps 767 mmHg 96%
    02:00 +10°C° 0 mm 1 mps 767 mmHg 97%
    03:00 +10°C° 0 mm 1 mps 767 mmHg 97%
    04:00 +10°C° 0 mm 1 mps 767 mmHg 97%
    05:00 +10°C° 0 mm 1 mps 767 mmHg 97%
    06:00 +10°C° 0 mm 1 mps 767 mmHg 97%
    07:00 +11°C° 0 mm 1 mps 768 mmHg 92%
    08:00 +12°C° 0 mm 1 mps 768 mmHg 86%
    09:00 +13°C° 0 mm 1 mps 768 mmHg 81%
    10:00 +15°C° 0 mm 2 mps 768 mmHg 71%
    11:00 +17°C° 0 mm 2 mps 767 mmHg 61%
    12:00 +19°C° 0 mm 2 mps 767 mmHg 50%
    13:00 +19°C° 0 mm 3 mps 767 mmHg 51%
    14:00 +19°C° 0 mm 3 mps 766 mmHg 51%
    15:00 +19°C° 0 mm 3 mps 766 mmHg 51%
    16:00 +18°C° 0 mm 3 mps 766 mmHg 58%
    17:00 +16°C° 0 mm 3 mps 766 mmHg 65%
    18:00 +13°C° 0 mm 3 mps 766 mmHg 71%
    19:00 +13°C° 0 mm 3 mps 766 mmHg 75%
    20:00 +12°C° 0 mm 3 mps 766 mmHg 79%
    21:00 +12°C° 0 mm 2 mps 766 mmHg 82%
    22:00 +12°C° 0 mm 2 mps 767 mmHg 85%
    23:00 +10°C° 0 mm 2 mps 767 mmHg 87%

    Day after tomorrow, 25 May, Saturday

    Time Temperature Precipitation Wind Pressure Humidity
    00:00 +10°C° 0 mm 2 mps 767 mmHg 89%
    01:00 +10°C° 0 mm 2 mps 767 mmHg 90%
    02:00 +10°C° 0 mm 2 mps 766 mmHg 91%
    03:00 +10°C° 0 mm 2 mps 766 mmHg 91%
    04:00 +9°C° 0 mm 2 mps 766 mmHg 92%
    05:00 +9°C° 0 mm 2 mps 766 mmHg 92%
    06:00 +9°C° 0 mm 2 mps 766 mmHg 92%
    07:00 +10°C° 0 mm 2 mps 766 mmHg 87%
    08:00 +13°C° 0 mm 2 mps 766 mmHg 81%
    09:00 +14°C° 0 mm 2 mps 766 mmHg 76%
    10:00 +16°C° 0 mm 1 mps 766 mmHg 67%
    11:00 +19°C° 0 mm 1 mps 766 mmHg 58%
    12:00 +21°C° 0 mm 1 mps 765 mmHg 49%
    13:00 +20°C° 0 mm 2 mps 765 mmHg 50%
    14:00 +20°C° 0 mm 2 mps 764 mmHg 50%
    15:00 +20°C° 0 mm 2 mps 764 mmHg 50%
    16:00 +18°C° 0 mm 2 mps 764 mmHg 58%
    17:00 +16°C° 0 mm 2 mps 764 mmHg 66%
    18:00 +15°C° 0 mm 2 mps 764 mmHg 74%
    19:00 +14°C° 0 mm 2 mps 764 mmHg 77%
    20:00 +13°C° 0 mm 2 mps 764 mmHg 80%
    21:00 +12°C° 0 mm 2 mps 764 mmHg 83%
    22:00 +12°C° 0 mm 2 mps 764 mmHg 84%
    23:00 +12°C° 0 mm 2 mps 764 mmHg 84%

    26 May, Sunday

    Time Temperature Precipitation Wind Pressure Humidity
    00:00 +12°C° 0 mm 2 mps 764 mmHg 85%
    01:00 +12°C° 0 mm 2 mps 763 mmHg 86%
    02:00 +10°C° 0 mm 2 mps 763 mmHg 86%
    03:00 +10°C° 0 mm 2 mps 763 mmHg 86%
    04:00 +10°C° 0 mm 2 mps 763 mmHg 85%
    05:00 +10°C° 0 mm 2 mps 763 mmHg 85%
    06:00 +10°C° 0 mm 2 mps 762 mmHg 84%
    07:00 +12°C° 0 mm 2 mps 762 mmHg 77%
    08:00 +13°C° 0 mm 2 mps 762 mmHg 69%
    09:00 +15°C° 0 mm 2 mps 762 mmHg 62%
    10:00 +17°C° 0 mm 2 mps 762 mmHg 56%
    11:00 +20°C° 0 mm 1 mps 762 mmHg 49%
    12:00 +22°C° 0 mm 1 mps 761 mmHg 43%
    13:00 +22°C° 0 mm 1 mps 761 mmHg 43%
    14:00 +22°C° 0 mm 1 mps 760 mmHg 43%
    15:00 +22°C° 0 mm 1 mps 760 mmHg 43%
    16:00 +20°C° 0 mm 1 mps 760 mmHg 52%
    17:00 +18°C° 0 mm 1 mps 760 mmHg 60%
    18:00 +15°C° 0 mm 1 mps 761 mmHg 69%
    19:00 +14°C° 0 mm 2 mps 761 mmHg 73%
    20:00 +14°C° 0 mm 2 mps 761 mmHg 76%
    21:00 +13°C° 0 mm 2 mps 761 mmHg 80%
    22:00 +13°C° 0 mm 2 mps 761 mmHg 81%
    23:00 +12°C° 0 mm 2 mps 761 mmHg 83%

    27 May, Monday

    Time Temperature Precipitation Wind Pressure Humidity
    00:00 +12°C° 0 mm 2 mps 761 mmHg 84%
    01:00 +12°C° 0 mm 2 mps 761 mmHg 84%
    02:00 +12°C° 0 mm 2 mps 760 mmHg 84%
    03:00 +12°C° 0 mm 1 mps 760 mmHg 84%
    04:00 +11°C° 0 mm 1 mps 760 mmHg 84%
    05:00 +11°C° 0 mm 1 mps 760 mmHg 84%
    06:00 +10°C° 0 mm 2 mps 760 mmHg 83%
    07:00 +12°C° 0 mm 2 mps 760 mmHg 76%
    08:00 +14°C° 0 mm 2 mps 760 mmHg 70%
    09:00 +15°C° 0 mm 2 mps 760 mmHg 63%
    10:00 +17°C° 0 mm 2 mps 760 mmHg 57%
    11:00 +19°C° 0 mm 2 mps 759 mmHg 51%
    12:00 +21°C° 0 mm 2 mps 759 mmHg 44%
    13:00 +23°C° 0 mm 2 mps 758 mmHg 47%
    14:00 +23°C° 0 mm 2 mps 757 mmHg 49%
    15:00 +22°C° 0 mm 3 mps 757 mmHg 52%
    16:00 +20°C° 0 mm 2 mps 757 mmHg 62%
    17:00 +18°C° 0 mm 2 mps 757 mmHg 72%
    18:00 +16°C° 0 mm 2 mps 757 mmHg 82%
    19:00 +16°C° 0 mm 2 mps 757 mmHg 86%
    20:00 +15°C° 0 mm 2 mps 756 mmHg 90%
    21:00 +14°C° 0 mm 2 mps 756 mmHg 94%
    22:00 +15°C° 0 mm 2 mps 756 mmHg 93%
    23:00 +15°C° 0 mm 2 mps 756 mmHg 92%

    28 May, Tuesday

    Time Temperature Precipitation Wind Pressure Humidity
    00:00 +15°C° 0 mm 2 mps 756 mmHg 91%
    01:00 +15°C° 0 mm 2 mps 755 mmHg 90%
    02:00 +16°C° 0 mm 2 mps 754 mmHg 88%
    03:00 +16°C° 0 mm 2 mps 754 mmHg 86%
    04:00 +16°C° 0 mm 2 mps 753 mmHg 84%
    05:00 +17°C° 0 mm 2 mps 753 mmHg 82%
    06:00 +17°C° 0 mm 2 mps 752 mmHg 80%
    07:00 +17°C° 0 mm 3 mps 752 mmHg 78%
    08:00 +18°C° 0 mm 3 mps 752 mmHg 77%
    09:00 +18°C° 0 mm 3 mps 751 mmHg 75%
    10:00 +18°C° 0 mm 3 mps 750 mmHg 74%
    11:00 +19°C° 0 mm 4 mps 749 mmHg 74%
    12:00 +20°C° 0 mm 4 mps 748 mmHg 73%
    13:00 +20°C° 0 mm 4 mps 747 mmHg 73%
    14:00 +20°C° 0 mm 4 mps 746 mmHg 73%
    15:00 +20°C° 0 mm 4 mps 745 mmHg 73%
    16:00 +19°C° 0.1 mm 4 mps 744 mmHg 77%
    17:00 +19°C° 0.1 mm 3 mps 744 mmHg 82%
    18:00 +18°C° 0.1 mm 2 mps 744 mmHg 86%
    19:00 +17°C° 0 mm 2 mps 744 mmHg 85%
    20:00 +17°C° 0 mm 2 mps 744 mmHg 84%
    21:00 +16°C° 0 mm 2 mps 745 mmHg 83%
    22:00 +16°C° 0 mm 3 mps 745 mmHg 80%
    23:00 +16°C° 0 mm 3 mps 746 mmHg 76%
    Show more